sat.trackr.live / text

‹ back to catalog

KUIPER-00173

NORAD 65786 · 2025-217AA

PAYLOAD ACTIVE UNKNOWN

§ Identity

Operator
Country
US
Launch date
2025-09-25
Launch site
AFETR
Launch vehicle
Mass (kg)
RCS (m²)

External: N2YO · Heavens-Above · Gunter

§ Orbital elements

Epoch: 2026-09-20T15:39:53.769024Z

Period
97.30 min
Inclination
51.9003°
Eccentricity
0.0000566
Mean motion
14.79937347 rev/d
Perigee alt
629.1 km
Apogee alt
629.9 km
Semi-major
7,007.7 km
B*
2.5012e-4
RAAN
250.9890°
Arg perigee
45.6469°
Mean anomaly
314.4540°
Rev number
5,388

§ Raw data

KUIPER-001731 65786U 25217AA  26263.65270566  .00001686  00000+0  25012-3 0  99982 65786  51.9003 250.9890 0000566  45.6469 314.4540 14.79937347 53885

JSON: /api/v1/satellites/65786 · /tle

For live sub-satellite position, see the globe view (requires WebGL).

§ Visibility from observer

Set your observer location to see the next 7 days of passes ≥ 10°. The values pass through the URL so the page stays shareable.

No JS? Fill the form by hand. The geolocation button needs JavaScript.